FICHTELBE Weather Reports


Display with metric or nautical units.
time (UTC)temp
F
wind
direction
speed
MPH
gust
MPH
rain 1hr
in
rain 24hr
in
rain mn
in
humidity
%
barometer
mb
20260902091639 57 260 9.0 0.0 0.00 0.00 0.00 71
20260902081839 55 240 10.0 0.0 0.00 0.00 0.00 76
20260902071739 52 260 10.0 0.0 0.00 0.00 0.00 93
20260902061639 50 270 14.0 0.0 0.00 0.00 0.00 87
20260902051838 48 270 16.0 0.0 0.00 0.00 0.00 93
20260902041939 48 270 16.0 0.0 0.00 0.00 0.00 93
20260902031639 46 280 13.0 0.0 0.00 0.00 0.00 99
20260902021838 48 290 14.0 0.0 0.00 0.00 0.00 93
20260902011839 48 290 13.0 0.0 0.00 0.00 0.00 99
20260902001639 50 300 12.0 0.0 0.00 0.00 0.00 93
20260901231823 50 290 17.0 0.0 0.00 0.00 0.00 87
20260901221939 50 270 23.0 0.0 0.00 0.00 0.00 87
20260901211639 52 270 18.0 0.0 0.00 0.00 0.00 87
20260901201838 52 270 18.0 0.0 0.00 0.00 0.00 87
20260901191839 54 270 16.0 0.0 0.00 0.00 0.00 81
20260901181639 54 270 15.0 0.0 0.00 0.00 0.00 81
20260901171839 55 260 15.0 0.0 0.00 0.00 0.00 76
20260901161939 59 260 14.0 0.0 0.00 0.00 0.00 62
20260901151638 59 270 12.0 0.0 0.00 0.00 0.00 67
20260901141838 61 270 15.0 0.0 0.00 0.00 0.00 63
20260901131739 57 270 14.0 0.0 0.00 0.00 0.00 67
20260901121639 57 280 15.0 0.0 0.00 0.00 0.00 76
20260901111739 54 280 20.0 0.0 0.00 0.00 0.00 81
20260901101939 57 270 24.0 36.0 0.00 0.00 0.00 71